[[{"header":{"parameterUnit":"m.s-1","parameterCategory":1,"la1":30.2991,"la2":30.254,"lo1":-89.0895,"lo2":-89.0444,"dy":0.0017,"dx":0.0017,"nx":28,"ny":28,"refTime":"2026-02-15T09:00:00:Z","depth":0,"parameterNumber":2,"parameterNumberName":"U-component_of_WINDS"},"data":[0,0,0,0,0,0,0,0,0,0,0,0,0,0,0,0,0,0,0,0,0,0,0,0,0,0,0,0,0,0,0,0,0,0,0,0,0,0,0,0,0,0,0,0,0,0,0,0,0,0,0,0,0,0,0,0,0,0,5.9613,5.9615,0,5.9768,5.977,5.9772,5.9773,5.9772,5.977,5.9768,5.9927,5.9933,5.9939,0,0,0,0,0,0,0,0,0,0,0,0,0,5.932,5.9326,5.9613,5.9615,5.9617,5.9768,5.977,5.9772,5.9774,5.9771,5.9769,5.9767,5.9925,5.9932,5.9939,0,0,0,0,0,0,0,0,0,0,0,0,0,5.9459,5.9327,5.9612,5.9636,5.9639,5.9767,5.977,5.9773,5.9774,5.9771,5.9768,5.9766,5.9923,5.9931,5.994,6.0056,0,0,5.9968,5.9972,0,0,0,0,0,0,0,0,5.9451,5.9469,5.963,5.9634,5.9639,5.9748,5.9725,5.9868,5.9775,5.9723,5.9768,5.9764,5.987,5.9883,5.9919,6.0063,6.007,5.9969,5.9975,5.9978,5.9981,0,0,0,0,0,0,0,5.9441,5.9463,5.9674,5.9633,5.9638,5.9639,5.9656,5.9752,5.9811,5.9727,5.9728,5.9746,5.9872,5.991,5.9923,6.0072,5.9969,5.9977,5.9982,5.9986,6.0324,6.0327,0,0,0,0,0,0,5.9427,5.9455,5.9669,5.9679,5.9536,5.9647,5.9665,5.9716,5.981,5.9822,5.9749,5.9746,5.9896,5.9912,5.9928,6.0072,5.9978,5.9987,5.9992,6.032,6.0324,6.0328,0,0,0,0,0,0,5.942,5.9446,5.9663,5.9567,5.9595,5.9655,5.9712,5.9721,5.9759,5.9826,5.9837,5.9777,5.9894,5.9915,6.0025,6.0077,5.9991,5.9999,6.0316,6.0321,6.0326,6.0358,0,0,0,0,0,0,5.9412,5.9444,5.9487,5.9568,5.96,5.9756,5.9715,5.9726,5.9775,5.9773,5.9855,5.9866,5.9894,6.0011,6.0034,6.0088,6.0006,6.0311,6.0318,6.0325,6.0353,6.0364,6.0373,0,0,0,0,0,5.9402,5.9489,5.9489,5.9515,5.9655,5.9759,5.9777,5.9807,5.9779,5.9824,5.9868,5.9864,6.0068,6.0022,6.0048,6.0106,6.0308,6.0316,6.0324,6.0348,6.0362,6.0373,0,0,0,0,0,0,5.9411,5.95,5.9501,5.9617,5.9681,5.9759,5.9816,5.982,5.9892,5.9887,5.9921,5.994,6.005,6.0089,6.0036,6.0225,6.0185,6.0198,6.0195,6.0208,6.0218,6.0206,6.0014,0,0,0,0,0,5.9427,5.9503,5.9577,5.9672,5.9704,5.9755,5.9801,5.9819,5.9886,5.9913,5.9964,6.003,6.011,6.0161,6.0238,6.0359,6.0378,6.0412,6.0422,6.043,6.0441,6.0511,6.0528,6.0354,6.0354,6.0354,0,0,5.946,5.9518,5.9564,5.9676,5.9727,5.9807,5.9778,5.9862,5.9922,5.9926,6.0033,6.0074,6.015,6.0266,6.032,6.0302,6.0494,6.044,6.0446,6.0453,6.0521,6.0538,6.0552,6.0359,6.0358,6.0357,0,0,5.9561,5.9612,5.9698,5.9751,5.983,5.9864,5.9885,5.9964,5.9992,6.01,6.0106,6.0178,6.0313,6.0368,6.0414,6.0541,6.054,6.0565,6.0618,6.0686,6.07,6.0712,6.0759,6.0776,6.0575,6.0576,6.0576,0,5.9591,5.9711,5.9742,5.9828,5.9878,5.9887,5.9976,6.0026,6.0126,6.0161,6.014,6.0312,6.0364,6.0495,6.0526,6.0563,6.0589,6.0555,6.0696,6.0708,6.072,6.0765,6.0783,6.0578,6.0578,6.0578,6.0577,0,5.9746,5.983,5.989,5.9988,6.0045,6.0132,6.0177,6.0232,6.0246,6.0283,6.0395,6.0458,6.0549,6.0581,6.0595,6.0716,6.0703,6.0688,6.0649,6.0739,6.0782,6.0799,6.0582,6.0581,6.058,6.0579,0,0,5.9854,5.9971,5.9993,6.0039,6.0129,6.0194,6.0283,6.0373,6.042,6.0489,6.0566,6.0682,6.0671,6.0723,6.0743,6.0803,6.0902,6.0782,6.0784,6.0803,6.1042,6.1053,6.1072,6.0904,6.0907,6.091,6.1036,0,5.9966,6.0123,6.0156,6.0293,6.0372,6.0384,6.0461,6.0526,6.0564,6.0637,6.0679,6.0762,6.0739,6.0771,6.0831,6.0877,6.0951,6.0869,6.0976,6.0979,6.0956,6.1094,6.1105,6.1221,6.1053,6.1056,6.1058,0,6.0115,6.0191,6.0336,6.0419,6.0453,6.0522,6.0609,6.0678,6.0753,6.0777,6.0837,6.0852,6.0947,6.0905,6.1037,6.098,6.1027,6.1057,6.1062,6.1073,6.1024,6.1109,6.1258,6.1276,6.1085,6.1083,6.1081,0,6.0182,6.0319,6.0425,6.0463,6.0562,6.0611,6.0655,6.0726,6.0779,6.0856,6.0891,6.0977,6.1025,6.1092,6.1131,6.1096,6.1261,6.1221,6.1285,6.1284,6.1318,6.1315,6.1477,6.1348,6.1347,6.1347,6.1347,0,6.0302,6.0391,6.0456,6.0521,6.0622,6.0659,6.0758,6.0802,6.0866,6.0941,6.0957,6.1027,6.1074,6.1151,6.1182,6.1289,6.131,6.1332,6.134,6.1331,6.1328,6.1361,6.1354,6.1352,6.1351,6.135,6.1349,0,6.0392,6.0439,6.0555,6.0641,6.0664,6.0735,6.0809,6.0873,6.0913,6.1007,6.1032,6.1094,6.1186,6.1232,6.1346,6.1367,6.1488,6.149,6.1463,6.1465,6.1527,6.152,6.1715,6.1743,6.1595,6.1596,6.1597,0,6.0466,6.0535,6.0629,6.068,6.0725,6.0808,6.0863,6.0904,6.0961,6.1054,6.1108,6.1201,6.1277,6.1424,6.148,6.1569,6.1573,6.1636,6.1586,6.1577,6.1575,6.1571,6.1579,6.1644,6.1645,6.1647,6.1647,0,6.0593,6.0614,6.0692,6.0781,6.0846,6.0917,6.0988,6.1029,6.1082,6.1146,6.1241,6.13,6.1419,6.1512,6.1605,6.1651,6.1659,6.1663,6.1683,6.1674,6.1656,6.1668,6.1487,6.1658,6.1657,6.1656,6.1656,6.1655,6.0678,6.074,6.0817,6.0905,6.0963,6.103,6.1095,6.1144,6.1224,6.1324,6.1344,6.1445,6.1522,6.1648,6.1698,6.1778,6.1765,6.1793,6.18,6.1806,6.181,6.1644,6.1796,6.1795,6.1795,6.1795,6.1795,0,6.0806,6.0857,6.0938,6.1037,6.1107,6.1109,6.1188,6.1247,6.1336,6.1407,6.1483,6.1594,6.1685,6.175,6.1843,6.1896,6.1902,6.1919,6.1915,6.1926,6.1816,6.179,6.1912,6.1912,6.1912,6.1912,6.1912,6.1912,6.0881,6.0988,6.1019,6.1156,6.1207,6.1306,6.1352,6.1414,6.1471,6.1594,6.167,6.1712,6.1782,6.1881,6.1966,6.1983,6.2017,6.2034,6.2051,6.1946,6.1934,6.1922,6.1898,6.2041,6.2041,6.2155,6.2156,6.2156]},{"header":{"parameterUnit":"m.s-1","parameterCategory":1,"la1":30.2991,"la2":30.254,"lo1":-89.0895,"lo2":-89.0444,"dy":0.0017,"dx":0.0017,"nx":28,"ny":28,"refTime":"2026-02-15T09:00:00:Z","depth":0,"parameterNumber":3,"parameterNumberName":"V-component_of_WINDS"},"data":[0,0,0,0,0,0,0,0,0,0,0,0,0,0,0,0,0,0,0,0,0,0,0,0,0,0,0,0,0,0,0,0,0,0,0,0,0,0,0,0,0,0,0,0,0,0,0,0,0,0,0,0,0,0,0,0,0,0,-4.2017,-4.2017,0,-4.1992,-4.1992,-4.1991,-4.1947,-4.1946,-4.1945,-4.1944,-4.1915,-4.1915,-4.1915,0,0,0,0,0,0,0,0,0,0,0,0,0,-4.2027,-4.2027,-4.2017,-4.2017,-4.2017,-4.1992,-4.1991,-4.1991,-4.1947,-4.1946,-4.1945,-4.1944,-4.1915,-4.1915,-4.1915,0,0,0,0,0,0,0,0,0,0,0,0,0,-4.2014,-4.2027,-4.2017,-4.1992,-4.1989,-4.1992,-4.1991,-4.1991,-4.1947,-4.1946,-4.1945,-4.1943,-4.1915,-4.1915,-4.1915,-4.194,0,0,-4.1915,-4.1915,0,0,0,0,0,0,0,0,-4.2015,-4.2014,-4.1996,-4.1993,-4.1991,-4.1971,-4.1984,-4.1974,-4.1947,-4.1963,-4.1944,-4.1943,-4.1935,-4.1933,-4.1931,-4.1939,-4.1937,-4.1915,-4.1915,-4.1915,-4.1915,0,0,0,0,0,0,0,-4.2016,-4.2015,-4.2007,-4.1996,-4.1992,-4.1981,-4.1978,-4.1982,-4.1956,-4.1961,-4.1958,-4.1956,-4.1933,-4.1931,-4.193,-4.1937,-4.1915,-4.1915,-4.1915,-4.1915,-4.1967,-4.1968,0,0,0,0,0,0,-4.2021,-4.2016,-4.2008,-4.2006,-4.2,-4.1982,-4.1978,-4.1979,-4.1956,-4.1951,-4.1957,-4.1954,-4.1931,-4.193,-4.1928,-4.1958,-4.1915,-4.1915,-4.1915,-4.1965,-4.1967,-4.1969,0,0,0,0,0,0,-4.2021,-4.202,-4.2009,-4.201,-4.2008,-4.1983,-4.1984,-4.1979,-4.1977,-4.1952,-4.1947,-4.196,-4.193,-4.1928,-4.1938,-4.1956,-4.1915,-4.1915,-4.1964,-4.1966,-4.1968,-4.2015,0,0,0,0,0,0,-4.2022,-4.2021,-4.203,-4.2011,-4.2008,-4.2019,-4.1985,-4.1979,-4.1977,-4.1973,-4.1954,-4.1949,-4.1929,-4.1939,-4.1938,-4.1955,-4.1915,-4.1962,-4.1965,-4.1967,-4.2012,-4.2019,-4.2025,0,0,0,0,0,-4.2022,-4.2043,-4.2031,-4.203,-4.2019,-4.202,-4.2019,-4.1996,-4.1979,-4.1988,-4.1973,-4.195,-4.1954,-4.194,-4.1939,-4.1956,-4.1961,-4.1964,-4.1967,-4.2009,-4.2017,-4.2024,0,0,0,0,0,0,-4.2063,-4.204,-4.2026,-4.2041,-4.2034,-4.2013,-4.2023,-4.2005,-4.2001,-4.1997,-4.1968,-4.1965,-4.1978,-4.1968,-4.1953,-4.1981,-4.1954,-4.1957,-4.1987,-4.1994,-4.2,-4.2002,-4.1915,0,0,0,0,0,-4.2074,-4.2078,-4.2057,-4.2073,-4.207,-4.2048,-4.2047,-4.2031,-4.2021,-4.2017,-4.2003,-4.1994,-4.1993,-4.1993,-4.1991,-4.2011,-4.2007,-4.2023,-4.2029,-4.2034,-4.2037,-4.2049,-4.2056,-4.1979,-4.1979,-4.1979,0,0,-4.2096,-4.2084,-4.2088,-4.2081,-4.2073,-4.2077,-4.2045,-4.205,-4.2054,-4.2018,-4.2027,-4.2016,-4.2004,-4.202,-4.2026,-4.2012,-4.2058,-4.2038,-4.2043,-4.2042,-4.2053,-4.206,-4.2067,-4.1981,-4.198,-4.198,0,0,-4.2139,-4.213,-4.2143,-4.2137,-4.2126,-4.2112,-4.2115,-4.2099,-4.2091,-4.21,-4.2074,-4.2077,-4.2076,-4.207,-4.2066,-4.2111,-4.209,-4.2111,-4.2144,-4.2155,-4.2162,-4.2167,-4.2184,-4.219,-4.2114,-4.2115,-4.2115,0,-4.2167,-4.2174,-4.2152,-4.216,-4.2159,-4.2129,-4.2143,-4.2137,-4.2126,-4.2125,-4.211,-4.2111,-4.21,-4.2115,-4.2127,-4.2125,-4.2128,-4.2113,-4.2163,-4.2168,-4.2172,-4.2188,-4.2195,-4.2117,-4.2117,-4.2117,-4.2116,0,-4.221,-4.2216,-4.2228,-4.222,-4.222,-4.223,-4.221,-4.2213,-4.2198,-4.2185,-4.2196,-4.2183,-4.2179,-4.2182,-4.2166,-4.2195,-4.2187,-4.2168,-4.214,-4.2183,-4.2197,-4.2203,-4.2121,-4.212,-4.2119,-4.2119,0,0,-4.2275,-4.2258,-4.2263,-4.226,-4.2248,-4.2251,-4.2262,-4.226,-4.2263,-4.2257,-4.2266,-4.2268,-4.2251,-4.2247,-4.2231,-4.2242,-4.228,-4.2221,-4.222,-4.2233,-4.2313,-4.2328,-4.2335,-4.2267,-4.2268,-4.2269,-4.2314,0,-4.2316,-4.2333,-4.2315,-4.2336,-4.2342,-4.2316,-4.2325,-4.2319,-4.2308,-4.2311,-4.2299,-4.2302,-4.2279,-4.2277,-4.2286,-4.2273,-4.2296,-4.227,-4.2274,-4.2275,-4.2278,-4.2342,-4.2357,-4.2401,-4.232,-4.2321,-4.2321,0,-4.2364,-4.2363,-4.2386,-4.2375,-4.2376,-4.2385,-4.2383,-4.2387,-4.238,-4.2372,-4.237,-4.2351,-4.2361,-4.2336,-4.235,-4.2333,-4.2334,-4.2328,-4.233,-4.2329,-4.23,-4.2343,-4.2414,-4.242,-4.233,-4.2329,-4.2329,0,-4.241,-4.2415,-4.2429,-4.2428,-4.2415,-4.2422,-4.2417,-4.241,-4.2411,-4.2409,-4.241,-4.2409,-4.2409,-4.2409,-4.2391,-4.2374,-4.2408,-4.238,-4.2401,-4.2402,-4.2409,-4.2408,-4.248,-4.241,-4.241,-4.241,-4.2409,0,-4.2457,-4.2472,-4.245,-4.2459,-4.2476,-4.2456,-4.2472,-4.2465,-4.2459,-4.2466,-4.2443,-4.245,-4.2426,-4.2431,-4.2418,-4.2432,-4.2432,-4.2426,-4.2422,-4.2428,-4.2429,-4.2427,-4.2424,-4.2411,-4.2411,-4.2411,-4.241,0,-4.251,-4.2497,-4.2511,-4.25,-4.2497,-4.251,-4.25,-4.2508,-4.2498,-4.2507,-4.2508,-4.2492,-4.2497,-4.248,-4.2481,-4.2472,-4.2494,-4.2485,-4.2497,-4.2494,-4.2516,-4.2515,-4.259,-4.2599,-4.2523,-4.2524,-4.2524,0,-4.2541,-4.2552,-4.2543,-4.2547,-4.2544,-4.2551,-4.2553,-4.2534,-4.2537,-4.2533,-4.2541,-4.2545,-4.2547,-4.2556,-4.2544,-4.2546,-4.2537,-4.2563,-4.2536,-4.2543,-4.2538,-4.2537,-4.2539,-4.2568,-4.2569,-4.257,-4.257,0,-4.2597,-4.259,-4.2594,-4.2597,-4.2601,-4.2602,-4.2601,-4.2605,-4.2586,-4.2591,-4.2597,-4.2598,-4.2602,-4.2606,-4.2606,-4.26,-4.2583,-4.2579,-4.2584,-4.259,-4.2597,-4.2595,-4.2512,-4.2577,-4.2577,-4.2576,-4.2576,-4.2575,-4.264,-4.265,-4.2646,-4.2652,-4.265,-4.2651,-4.2659,-4.2651,-4.2656,-4.2658,-4.2648,-4.2656,-4.2652,-4.265,-4.2647,-4.2654,-4.2642,-4.2649,-4.2651,-4.2653,-4.2657,-4.2597,-4.2654,-4.2654,-4.2653,-4.2653,-4.2653,0,-4.2695,-4.2693,-4.2699,-4.27,-4.2705,-4.269,-4.269,-4.2695,-4.2703,-4.2701,-4.2705,-4.2713,-4.2718,-4.2708,-4.2711,-4.2719,-4.2711,-4.272,-4.2719,-4.2719,-4.2667,-4.2663,-4.2727,-4.2727,-4.2727,-4.2727,-4.2727,-4.2727,-4.2724,-4.2741,-4.2735,-4.2751,-4.2748,-4.2758,-4.2759,-4.276,-4.2759,-4.2769,-4.2774,-4.2768,-4.2763,-4.2767,-4.2771,-4.2768,-4.2771,-4.2783,-4.2777,-4.2729,-4.2722,-4.2715,-4.2711,-4.2784,-4.2784,-4.2828,-4.2829,-4.2829]}]]